Visibility
15.0 13.5 12.2 14.2 15.0 13.5 12.6 14.7 15.0 15.0 15.0 12.3 11.9 7.6 12.6 14.9 15.0 15.0 15.0 15.0 15.0 15.0 15.0 15.0 15.0 15.0 15.0 15.0 15.0 15.0 15.0 15.0 15.0 15.0 15.0 15.0 15.0 15.0 15.0 15.0 15.0 15.0 15.0
15.0 15.0 15.0 15.0 15.0 15.0 15.0 15.0 15.0 15.0 15.0 15.0 15.0 14.9 14.9 14.7 5.0 15.0 15.0 15.0 15.0 15.0 15.0 15.0 15.0 15.0 15.0 15.0 15.0 15.0 15.0 15.0 15.0 15.0 15.0 15.0 15.0 15.0 15.0 15.0 15.0 15.0 15.0
15.0 15.0 15.0 15.0 15.0 15.0 15.0 15.0 15.0 15.0 15.0 15.0 15.0 15.0 15.0 15.0 15.0 15.0 15.0 4.2 8.0 7.1 13.0 15.0 15.0 15.0 15.0 15.0 15.0 15.0 15.0 15.0 15.0 15.0 15.0 15.0 15.0 15.0 13.7 15.0 15.0 15.0 15.0
15.0 15.0 15.0 15.0 15.0 15.0 15.0 15.0 15.0 15.0 15.0 15.0 15.0 12.7 14.5 15.0 15.0 15.0 15.0 15.0 9.3 8.4 7.8 3.7 7.3 15.0 15.0 15.0 15.0 15.0 15.0 15.0 15.0 15.0 15.0 15.0 15.0 15.0 15.0 15.0 15.0 15.0 15.0
15.0 15.0 15.0 15.0 15.0 15.0 15.0 15.0 15.0 15.0 15.0 15.0 15.0 15.0 15.0 15.0 15.0 15.0 11.5 15.0 15.0 13.9 15.0 15.0 11.1 13.4 12.7 15.0 15.0 15.0 15.0 15.0 15.0 15.0 15.0 15.0 15.0 15.0 15.0 15.0 15.0 15.0 15.0
15.0 15.0 15.0 15.0 15.0 15.0 15.0 15.0 15.0 15.0 15.0 15.0 15.0 15.0 15.0 11.4 11.4 15.0 7.1 12.6 15.0 15.0 15.0 15.0 15.0 15.0 15.0 15.0 15.0 15.0 15.0 15.0 15.0 15.0 15.0 15.0 15.0 15.0 15.0 15.0 15.0 15.0 15.0
15.0 15.0 15.0 15.0 14.0 15.0 15.0 15.0 15.0 1.0 12.2 1.4 15.0 15.0 15.0 15.0 6.9 5.1 11.3 5.8 11.0 15.0 15.0 15.0 15.0 15.0 15.0 15.0 15.0 15.0 15.0 15.0 15.0 15.0 15.0 15.0 15.0 15.0 15.0 15.0 15.0 15.0 15.0
15.0 15.0 15.0 15.0 15.0 15.0 3.4 0.2 0.7 0.4 0.2 0.5 15.0 15.0 15.0 15.0 6.7 8.2 12.6 15.0 15.0 15.0 15.0 15.0 15.0 15.0 15.0 15.0 15.0 15.0 15.0 15.0 15.0 15.0 15.0 15.0 15.0 15.0 15.0 15.0 15.0 15.0 15.0
15.0 15.0 15.0 15.0 12.7 8.9 0.1 0.2 7.5 0.6 7.8 14.8 15.0 15.0 15.0 14.5 12.6 15.0 9.5 15.0 15.0 15.0 15.0 15.0 15.0 13.9 12.8 15.0 15.0 15.0 15.0 15.0 15.0 15.0 15.0 15.0 15.0 15.0 15.0 15.0 15.0 15.0 15.0
15.0 15.0 15.0 15.0 14.4 0.7 12.8 15.0 15.0 15.0 13.7 15.0 4.9 15.0 12.9 1.9 8.0 15.0 15.0 15.0 15.0 15.0 15.0 13.0 9.1 12.4 15.0 15.0 15.0 15.0 8.9 15.0 15.0 15.0 15.0 15.0 15.0 15.0 15.0 15.0 15.0 15.0 15.0
15.0 15.0 15.0 15.0 15.0 15.0 15.0 15.0 14.7 0.5 0.3 0.2 0.2 7.5 15.0 13.3 13.2 14.8 15.0 15.0 14.6 15.0 0.1 0.0 15.0 15.0 15.0 15.0 15.0 15.0 15.0 15.0 15.0 15.0 15.0 15.0 15.0 15.0 15.0 15.0 15.0 15.0 12.9
15.0 15.0 15.0 15.0 15.0 15.0 0.2 0.1 0.3 0.1 0.1 0.1 0.1 0.1 5.3 14.9 9.3 10.4 11.1 15.0 10.3 8.7 0.1 15.0 15.0 15.0 15.0 15.0 15.0 15.0 15.0 15.0 15.0 15.0 15.0 15.0 15.0 15.0 15.0 15.0 15.0 15.0 15.0
15.0 15.0 15.0 15.0 15.0 15.0 6.6 0.1 0.1 1.8 0.5 0.1 0.5 0.1 0.1 5.9 11.2 6.2 7.4 7.6 8.8 8.1 8.5 15.0 15.0 15.0 15.0 15.0 15.0 15.0 15.0 15.0 15.0 15.0 15.0 15.0 15.0 15.0 15.0 15.0 15.0 15.0 15.0
15.0 15.0 0.3 0.1 0.1 0.5 13.9 15.0 15.0 15.0 15.0 15.0 4.5 0.1 0.0 0.0 0.0 6.0 8.1 7.8 7.9 10.7 15.0 15.0 15.0 15.0 15.0 15.0 15.0 15.0 15.0 15.0 15.0 15.0 15.0 15.0 13.8 14.2 9.4 12.0 5.7 5.8 4.5
14.8 6.4 0.2 0.1 0.1 0.0 0.0 0.0 0.1 5.1 15.0 0.1 0.2 0.8 0.0 0.0 0.0 0.0 3.0 15.0 15.0 15.0 15.0 14.8 0.9 15.0 15.0 15.0 15.0 15.0 15.0 15.0 15.0 15.0 15.0 11.1 13.2 12.0 11.3 7.3 5.0 1.1 2.5
11.5 6.1 1.8 5.8 5.5 8.4 0.1 0.0 0.0 0.0 0.1 0.1 0.0 0.0 0.3 0.1 0.1 0.4 11.1 15.0 15.0 15.0 15.0 0.3 0.5 13.7 15.0 15.0 15.0 15.0 15.0 15.0 15.0 15.0 7.9 7.5 6.4 5.1 4.4 4.5 4.2 0.3 2.1
5.1 6.2 0.4 1.9 2.3 2.9 1.9 0.1 0.0 0.0 0.0 0.0 0.0 0.0 0.0 0.0 0.3 12.1 15.0 15.0 15.0 6.0 0.2 0.6 0.5 14.4 15.0 15.0 15.0 15.0 15.0 15.0 15.0 15.0 10.5 6.2 5.8 5.0 1.1 3.8 4.0 3.7 4.1
0.9 4.1 1.9 0.8 1.4 0.9 0.5 1.4 0.3 0.1 0.0 0.0 0.0 0.0 0.0 0.0 0.1 5.2 13.2 3.4 0.1 0.2 1.5 2.1 15.0 15.0 15.0 15.0 15.0 15.0 15.0 15.0 15.0 15.0 7.7 4.9 4.2 3.7 2.9 3.5 3.9 1.6 1.9
0.5 0.7 2.9 4.3 2.0 1.0 0.3 0.3 0.8 0.2 0.2 0.1 0.0 0.0 0.0 1.8 8.7 5.4 2.9 0.3 0.5 0.2 1.2 15.0 15.0 15.0 15.0 15.0 15.0 15.0 15.0 15.0 14.4 6.3 4.4 4.1 4.1 4.0 7.9 4.1 2.2 14.0 6.8
3.4 0.6 1.1 1.7 1.1 0.5 0.2 0.2 0.1 0.1 0.1 0.1 0.1 0.1 0.4 3.5 0.0 0.1 0.1 0.1 0.1 0.2 3.0 15.0 15.0 15.0 15.0 15.0 15.0 15.0 11.2 8.7 8.2 9.4 4.1 4.1 14.9 15.0 9.8 4.7 3.8 0.8 1.5
1.3 0.2 0.3 0.1 0.2 0.2 0.2 0.2 0.1 0.1 0.1 0.1 0.1 0.1 0.1 0.2 0.1 0.1 0.1 0.1 0.2 1.1 3.3 15.0 15.0 15.0 15.0 15.0 15.0 8.1 5.8 5.1 4.5 4.1 4.1 4.1 4.1 4.1 4.1 2.9 2.2 1.8 0.8
0.2 0.2 0.1 0.1 0.2 0.2 0.1 0.1 0.1 0.1 0.1 0.1 0.1 0.0 0.1 0.1 0.1 0.1 0.1 0.1 0.1 1.3 15.0 15.0 15.0 15.0 15.0 15.0 15.0 5.7 4.7 4.3 3.8 2.5 2.7 2.0 1.7 1.3 2.2 2.4 2.8 1.4 1.0
0.1 0.1 0.1 0.1 0.1 0.1 0.1 0.1 0.1 0.1 0.1 0.1 0.1 0.2 0.1 0.1 0.1 0.1 0.1 0.1 0.1 0.6 8.6 15.0 15.0 15.0 15.0 15.0 15.0 15.0 3.6 4.7 5.2 1.7 2.3 2.2 1.4 3.0 3.9 2.7 1.5 1.2 1.5
0.1 0.1 0.1 0.1 0.1 0.1 0.1 0.1 0.1 0.1 0.1 0.1 0.2 0.2 0.1 0.1 0.1 0.1 0.1 0.1 0.5 3.1 14.7 15.0 15.0 15.0 15.0 6.8 4.8 4.6 4.1 4.3 4.0 3.9 3.3 0.9 2.3 2.1 4.0 1.1 1.7 1.6 1.6
0.1 0.1 0.1 0.2 0.4 0.5 0.3 0.1 0.1 0.1 0.1 0.1 0.1 0.2 0.2 0.1 0.1 0.1 0.1 0.1 0.5 12.1 14.9 15.0 15.0 14.2 5.2 4.3 4.1 6.8 5.2 15.0 10.6 5.5 4.1 2.4 1.0 0.4 2.8 0.3 2.1 3.3 2.2
0.1 0.1 0.1 0.3 0.6 1.4 1.0 0.2 0.1 0.1 0.1 0.1 0.1 0.1 0.2 0.2 0.1 0.1 0.2 0.6 1.5 10.3 15.0 12.6 7.3 10.4 4.1 4.5 6.1 2.4 15.0 15.0 15.0 15.0 14.5 1.3 0.2 4.0 3.9 4.1 4.1 3.2 1.9